LARES-2

Last updated on Thu Apr 17 2025 00:03:26 GMT+0000 (Coordinated Universal Time)

1 53105U 22080A 25106.50201608 .00000013 00000+0 00000+0 0 9994 2 53105 70.1431 91.6595 0004903 68.0511 292.0524 6.38965285 64404
UTC large
Height (km)
Speed (km/s)
/
Latitude / Longitude
Inclination (degrees)
Orbital Period (minutes)
Azimuth
Elevation
Range (km)
Doppler Factor

Next 0 passes for location: London (51.5072 / 0.1276)

Sorry there are no passes over London.